This is the latest recevied weather packets stored in our database for station/object WD4ITN. If no packets are shown the sender has not sent any weather packets the latest 10 day(s).
| Time | Temp. | Humidity | Pressure | Rain* | Wind** | Luminosity | Snow |
|---|---|---|---|---|---|---|---|
| 1778180903 | 16.11° C | 57% | 1007.5 hPa | 0 mm | - | - | - |
| 1778180604 | 16.11° C | 59% | 1007.5 hPa | 0 mm | - | - | - |
| 1778180292 | 15.56° C | 61% | 1007.4 hPa | 0 mm | - | - | - |
| 1778180012 | 16.11° C | 62% | 1007.5 hPa | 0 mm | - | - | - |
| 1778179711 | 15.56° C | 58% | 1007.7 hPa | 0 mm | - | - | - |
| 1778179408 | 15.56° C | 60% | 1007.8 hPa | 0 mm | - | - | - |
| 1778179097 | 15.56° C | 64% | 1007.8 hPa | 0 mm | - | - | - |
| 1778178795 | 15.56° C | 64% | 1007.6 hPa | 0 mm | - | - | - |
| 1778178514 | 15° C | 66% | 1007.6 hPa | 0 mm | - | - | - |
| 1778178214 | 14.44° C | 63% | 1007.7 hPa | 0 mm | - | - | - |
| 1778177912 | 13.89° C | 66% | 1007.7 hPa | 0 mm | - | - | - |
| 1778177608 | 13.33° C | 68% | 1007.8 hPa | 0 mm | - | - | - |
| 1778177305 | 13.33° C | 68% | 1007.9 hPa | 0 mm | - | - | - |
| 1778177004 | 13.33° C | 67% | 1008.1 hPa | 0 mm | - | - | - |
| 1778176701 | 13.89° C | 65% | 1008.1 hPa | 0 mm | - | - | - |
| 1778176404 | 13.89° C | 68% | 1008.1 hPa | 0 mm | - | - | - |
| 1778176102 | 13.33° C | 68% | 1008.1 hPa | 0 mm | - | - | - |
| 1778175799 | 13.33° C | 70% | 1008.2 hPa | 0 mm | - | - | - |
| 1778175214 | 12.78° C | 68% | 1008.4 hPa | 0 mm | - | - | - |
| 1778174603 | 12.78° C | 69% | 1008.4 hPa | 0 mm | - | - | - |
| 1778174301 | 12.78° C | 69% | 1008.5 hPa | 0 mm | - | - | - |
| 1778173995 | 12.78° C | 70% | 1008.7 hPa | 0 mm | - | - | - |
| 1778173714 | 12.78° C | 69% | 1008.6 hPa | 0 mm | - | - | - |
| 1778173394 | 12.78° C | 71% | 1008.6 hPa | 0 mm | - | - | - |
| 1778173107 | 12.78° C | 70% | 1008.8 hPa | 0 mm | - | - | - |
* Rain since midnight (hover to see other rain measurements)
** Current wind speed in m/s (hover to see current wind gust speed)